Wind_Speed
40 38 37 38 35 34 28 17 18 20 15 23 28 35 36 37 36 28 28 23 22 26 14 13 15 16 14 12 8 6 5 4 5 6 6 5 4 3 3 3 5 8 9 10 11 12 12 11 11
40 40 38 41 37 34 26 22 28 27 26 23 32 36 42 42 38 33 25 20 20 22 18 16 18 18 17 16 13 10 7 5 6 8 9 6 3 2 2 3 5 7 9 11 12 12 11 11 11
42 43 40 43 39 39 26 35 35 32 32 32 35 40 49 48 49 42 36 23 19 21 21 20 20 21 20 18 16 13 9 8 7 8 8 7 4 1 2 3 6 7 9 9 10 10 10 11 12
41 45 46 47 42 35 33 41 39 29 34 36 39 41 52 51 49 49 46 34 28 27 22 23 23 22 23 22 20 17 15 11 9 9 10 9 7 4 3 2 3 6 10 10 8 9 11 12 14
39 42 45 47 47 40 32 38 51 34 29 41 38 46 54 55 54 52 45 33 32 28 28 28 26 24 24 24 23 21 19 16 13 12 12 10 9 6 4 4 4 7 8 9 10 11 12 14 15
41 42 45 44 44 43 37 35 47 46 28 27 44 48 60 66 58 61 60 46 34 32 32 31 28 28 26 26 23 23 21 19 18 15 12 11 9 7 4 5 6 7 9 10 12 12 13 14 16
36 37 41 42 43 42 40 41 48 44 35 29 30 42 58 63 67 59 60 50 42 34 30 32 32 31 29 27 26 24 21 22 19 18 16 13 12 13 10 8 7 9 9 10 12 12 12 16 17
34 35 35 37 39 41 39 39 48 44 51 40 29 33 54 54 59 62 52 47 50 39 37 34 35 34 33 32 29 27 23 22 24 22 20 20 18 15 14 13 10 9 9 10 10 10 12 17 18
35 37 33 30 31 33 36 39 41 40 39 31 33 43 51 61 63 56 48 45 50 46 41 42 38 36 36 35 32 29 27 26 25 25 22 19 18 18 16 14 13 13 12 11 12 11 13 15 15
38 38 34 32 32 32 33 41 38 29 35 38 37 37 33 50 59 48 49 47 48 54 46 44 43 41 39 36 35 35 32 29 26 24 22 20 19 17 17 15 16 15 15 15 15 14 14 15 17
37 37 35 36 36 33 30 38 36 28 36 35 39 40 35 37 46 40 41 48 46 57 50 48 49 46 45 42 40 38 34 33 28 25 23 22 21 20 20 19 18 17 18 18 17 14 14 15 15
40 40 40 39 39 37 37 36 45 38 36 31 37 44 41 40 48 54 36 43 50 53 58 50 53 51 49 45 43 41 39 36 32 29 27 25 25 23 23 22 21 20 20 21 19 19 15 20 17
40 40 41 41 42 42 39 36 46 48 41 40 41 40 38 38 40 43 36 43 49 51 58 59 51 55 52 50 48 45 44 42 38 34 31 28 28 28 26 26 23 22 23 22 22 22 17 19 21
37 41 42 43 43 44 45 43 44 43 56 39 37 48 50 43 46 50 28 41 48 54 57 62 55 55 56 54 52 51 50 45 44 40 35 34 32 32 30 29 27 26 25 25 25 22 17 17 16
39 43 41 39 39 42 46 49 43 46 55 55 63 54 59 54 41 41 43 41 40 52 56 60 60 53 58 58 57 52 52 49 54 45 43 39 38 39 33 34 33 31 28 28 27 26 21 18 11
40 41 40 35 36 39 37 45 39 40 53 52 57 61 55 55 55 57 57 51 43 39 59 63 64 61 61 58 60 63 58 57 50 47 47 45 46 43 40 41 39 37 32 32 29 26 23 18 20
38 40 41 37 32 33 36 42 38 39 45 49 52 51 51 56 55 61 43 48 48 45 46 62 66 64 64 66 64 66 62 59 65 56 51 48 52 48 47 47 44 39 34 33 32 25 22 22 21
32 36 37 36 30 26 26 41 37 40 44 44 47 51 52 50 51 49 44 46 50 53 48 53 67 61 60 67 71 72 69 66 62 54 64 55 55 54 52 49 45 44 38 39 34 32 28 23 20
32 32 31 33 31 24 31 29 35 42 40 42 44 47 46 46 46 42 43 45 49 49 53 56 57 69 65 63 69 74 74 71 73 71 68 58 60 61 55 52 51 49 41 35 26 31 28 30 29
30 32 33 37 40 33 27 35 44 45 47 45 38 47 45 44 42 41 42 42 47 47 43 51 60 62 70 68 72 72 77 76 76 66 71 65 70 62 61 60 54 51 45 36 36 35 31 22 32
32 29 39 43 40 42 38 32 30 44 44 36 37 40 40 43 39 36 40 41 44 47 42 49 51 55 72 73 72 75 75 78 76 82 79 79 60 67 60 59 58 55 49 43 47 41 29 27 31
39 35 38 36 24 36 47 43 48 50 53 48 44 41 44 45 45 42 40 43 43 43 41 45 49 46 57 75 78 74 71 80 79 74 67 75 60 65 72 60 59 63 55 46 46 43 32 33 29
33 27 34 35 37 39 43 54 53 56 50 43 38 37 45 50 49 45 43 44 43 42 43 39 46 43 56 58 69 83 79 72 80 82 80 82 80 74 63 68 70 61 56 47 49 50 35 30 26
34 38 31 29 39 38 24 44 46 38 34 31 35 32 34 38 41 46 49 48 46 40 39 39 40 46 53 46 55 71 86 84 72 68 77 75 85 79 78 75 70 54 60 60 56 62 40 36 24
38 31 39 31 35 36 26 34 32 20 20 23 31 33 36 36 35 39 44 45 46 48 46 43 41 41 45 51 47 44 64 92 75 81 63 56 54 75 72 65 60 64 56 55 46 58 53 31 27
40 42 40 39 33 24 27 29 18 18 26 20 29 36 41 43 38 25 30 40 44 47 48 47 46 45 44 47 48 47 42 42 58 78 79 67 63 58 49 59 51 50 45 56 66 61 31 24 25
32 27 25 40 24 28 23 21 28 34 20 20 29 38 42 41 35 40 34 32 37 40 42 41 42 46 47 47 49 47 46 44 44 43 41 71 81 75 59 63 62 71 54 63 44 30 16 30 28
34 28 27 29 31 28 26 27 34 27 25 29 26 31 36 41 41 42 38 37 35 33 38 39 38 40 42 43 45 48 49 50 50 47 41 37 39 41 48 56 57 56 59 57 37 36 30 33 32
28 27 29 31 33 36 36 27 29 38 35 28 35 34 36 44 47 43 43 43 42 40 38 38 37 37 38 39 39 41 43 44 46 47 46 46 45 44 44 44 53 63 62 54 41 39 39 35 34
21 29 29 33 29 28 32 25 28 32 25 24 22 37 42 41 38 39 40 43 45 45 43 42 42 42 42 42 43 43 43 44 44 44 43 45 45 46 47 45 38 51 59 54 48 44 40 37 37
Wind_Direction
234 231 237 237 237 230 222 193 168 169 196 232 239 246 238 227 217 236 241 246 244 261 250 250 242 244 251 243 225 233 228 244 265 266 252 234 211 177 142 90 60 46 43 33 28 33 27 24 23
234 238 235 238 235 235 222 172 195 192 210 224 219 237 243 239 232 229 234 243 241 243 256 260 248 243 243 241 221 224 239 248 268 272 263 250 229 165 108 44 39 39 36 39 37 30 26 21 21
238 234 236 239 233 235 219 193 196 215 219 223 207 221 239 243 238 226 233 240 248 255 263 266 252 249 241 238 235 230 233 249 263 273 270 256 243 264 36 29 19 21 30 39 46 41 35 24 16
237 240 236 236 237 233 232 198 202 220 236 225 215 219 230 239 243 246 246 237 238 250 242 254 249 249 250 246 246 245 246 249 260 272 278 278 276 296 330 17 14 23 30 36 36 37 29 26 18
238 238 237 238 238 233 221 238 203 209 237 234 218 219 226 237 237 240 244 234 232 240 246 246 242 243 244 253 259 254 250 255 260 265 273 286 281 285 310 320 328 342 354 16 24 22 19 11 8
241 240 240 237 237 236 224 232 226 207 222 236 228 219 225 233 235 237 243 245 231 232 244 238 236 240 240 245 257 264 268 267 260 263 267 274 283 283 284 301 315 344 4 13 18 13 9 359 355
248 245 243 243 239 235 230 226 236 223 211 231 228 218 232 235 238 234 244 237 235 226 230 238 232 234 239 243 248 255 268 270 263 262 263 267 283 285 286 283 298 318 337 355 17 19 2 356 349
247 244 242 238 240 240 235 225 235 237 228 224 223 213 235 238 238 236 236 232 238 224 225 232 234 234 236 240 244 252 255 262 270 265 268 273 277 272 275 278 280 295 313 333 351 3 360 356 353
249 245 244 244 242 245 238 230 225 238 247 251 252 243 250 252 251 247 242 234 238 230 224 227 236 230 234 240 243 247 253 259 266 265 266 269 275 275 269 276 280 285 299 311 319 339 359 0 355
247 244 246 247 246 245 240 225 223 249 246 244 247 264 247 263 260 263 255 241 240 240 224 225 231 234 233 235 241 248 254 258 260 264 267 267 270 270 270 278 282 285 295 301 308 321 344 358 355
249 246 251 248 249 247 237 231 206 237 258 253 260 260 255 258 260 256 253 242 233 247 234 226 230 230 233 236 240 246 254 256 255 261 261 268 268 267 266 272 278 284 290 297 305 314 359 0 356
247 246 246 246 246 245 243 227 216 210 250 251 253 250 252 245 250 256 247 251 232 232 243 228 228 229 228 231 236 243 250 246 249 251 253 259 262 262 266 271 279 284 288 295 298 305 318 342 346
247 245 245 244 245 244 243 238 222 211 222 257 249 257 254 254 256 263 248 238 236 230 233 237 227 234 230 229 233 241 245 247 247 244 244 247 254 259 259 265 270 279 282 285 290 301 325 339 331
254 252 246 242 242 242 243 238 230 228 212 224 253 252 244 257 263 264 246 239 246 224 228 235 232 228 235 232 234 247 242 239 248 247 243 242 243 250 253 262 265 269 272 279 282 292 302 330 332
252 250 249 250 255 253 250 244 243 232 221 219 231 247 247 245 254 259 263 238 234 228 222 233 236 234 237 235 233 245 243 243 250 249 254 249 247 250 247 254 259 263 265 270 276 287 303 288 304
257 257 257 253 256 254 258 250 240 239 237 241 243 248 256 259 255 253 262 252 240 236 226 226 233 234 231 236 237 236 239 247 229 241 244 245 246 249 248 251 254 258 265 266 272 274 285 283 284
257 259 257 253 257 260 261 252 247 243 239 238 242 247 247 250 256 260 258 255 237 235 232 227 228 233 230 232 235 242 242 243 236 239 230 236 244 242 247 250 252 260 263 270 271 275 272 286 294
258 257 254 252 243 255 269 256 249 245 247 242 241 244 247 250 254 259 254 255 249 233 232 236 227 238 236 230 233 238 244 243 252 239 226 226 234 243 239 247 249 259 264 268 268 272 280 282 292
258 252 255 254 236 238 243 251 250 254 247 247 243 247 250 251 252 256 254 248 255 245 238 239 237 229 242 239 233 235 241 245 250 253 253 239 234 234 238 247 245 256 263 264 272 276 276 283 290
258 254 245 235 232 220 228 223 230 242 255 253 253 248 250 252 256 258 256 252 254 254 242 246 243 240 236 240 236 239 238 240 244 245 252 239 236 234 246 246 246 248 257 256 263 269 275 270 286
261 248 251 254 244 219 228 221 232 242 249 249 259 259 255 252 244 247 255 253 254 254 249 240 238 244 236 238 239 239 239 240 243 244 247 256 244 249 239 236 254 251 254 260 255 271 264 269 289
270 266 258 262 255 246 229 239 234 242 254 260 261 250 252 256 256 249 248 254 255 255 251 241 236 233 240 239 240 240 245 242 242 245 237 253 238 249 242 241 253 247 256 259 249 266 261 280 273
278 283 270 253 246 248 241 237 244 245 255 258 257 245 242 248 253 257 255 253 250 255 256 244 239 238 238 240 245 240 241 247 247 249 252 251 257 257 244 250 257 252 251 259 264 271 264 263 285
275 278 277 254 252 259 288 251 251 260 266 253 252 258 247 246 250 252 252 253 253 251 256 253 244 246 246 243 242 245 240 243 244 251 248 250 250 258 258 262 244 250 259 258 269 268 257 262 291
248 260 269 264 251 270 273 266 255 248 224 225 220 242 254 255 253 252 255 255 254 253 251 251 252 246 249 248 248 253 250 242 244 243 249 242 248 253 255 248 245 253 253 258 268 256 251 261 275
256 247 252 263 267 269 269 269 242 242 241 242 216 245 253 252 257 258 248 251 253 251 251 252 248 248 248 250 251 253 258 256 252 254 256 239 240 244 233 238 247 250 261 258 255 253 261 275 275
285 270 274 257 254 272 267 271 243 237 204 231 214 225 241 265 270 267 260 247 246 253 252 251 249 248 248 248 252 252 252 256 256 253 251 249 256 258 266 260 250 247 265 267 269 251 258 282 282
290 278 269 244 255 262 264 274 263 221 194 195 211 237 244 256 265 268 269 264 254 250 254 253 251 249 251 250 250 252 254 253 258 260 258 253 253 258 265 256 253 253 260 257 262 267 259 285 292
273 258 260 242 243 257 268 262 265 259 265 234 222 222 236 245 254 261 263 261 262 257 252 251 253 253 254 253 252 252 254 255 255 258 260 259 256 257 256 255 248 256 257 260 262 263 264 274 279
260 256 255 263 241 257 264 253 254 259 250 245 247 227 240 244 240 246 248 253 258 261 258 255 253 252 251 252 253 255 254 254 253 253 253 254 256 255 254 255 254 253 252 255 259 268 263 267 268
Height
5863 5863 5866 5868 5874 5878 5884 5894 5896 5895 5894 5896 5904 5899 5895 5894 5892 5894 5898 5906 5907 5910 5911 5911 5912 5914 5916 5916 5917 5918 5917 5918 5918 5919 5919 5918 5918 5917 5916 5916 5915 5914 5912 5911 5910 5908 5907 5906 5904
5857 5859 5861 5862 5868 5872 5884 5889 5885 5886 5886 5891 5902 5900 5890 5891 5896 5895 5903 5903 5907 5908 5909 5910 5911 5912 5914 5915 5915 5917 5918 5918 5918 5919 5919 5918 5918 5918 5916 5916 5915 5913 5911 5910 5910 5909 5907 5907 5905
5851 5854 5857 5856 5861 5867 5878 5876 5876 5877 5880 5883 5892 5895 5884 5883 5890 5895 5896 5906 5904 5907 5907 5909 5910 5911 5912 5913 5914 5915 5917 5918 5918 5919 5919 5918 5917 5917 5916 5915 5916 5914 5912 5911 5910 5908 5908 5908 5906
5844 5846 5850 5850 5854 5865 5870 5866 5867 5869 5871 5879 5883 5889 5881 5880 5885 5889 5896 5906 5903 5902 5904 5906 5908 5910 5912 5912 5912 5914 5916 5917 5917 5918 5919 5918 5917 5917 5915 5914 5914 5914 5912 5911 5910 5909 5908 5907 5906
5834 5838 5841 5844 5848 5855 5864 5865 5864 5864 5865 5868 5877 5879 5876 5873 5879 5882 5884 5899 5900 5898 5901 5903 5904 5906 5909 5910 5911 5911 5913 5915 5916 5916 5917 5917 5917 5916 5915 5914 5914 5914 5912 5911 5909 5909 5908 5907 5904
5825 5831 5833 5837 5841 5848 5858 5860 5857 5859 5862 5861 5868 5870 5869 5865 5871 5876 5878 5886 5895 5896 5896 5899 5901 5903 5905 5907 5909 5911 5911 5912 5914 5914 5915 5915 5915 5914 5913 5913 5913 5913 5913 5910 5909 5908 5907 5906 5904
5820 5823 5826 5831 5834 5838 5847 5852 5852 5861 5858 5858 5859 5863 5859 5861 5861 5872 5872 5884 5884 5894 5893 5895 5897 5899 5900 5902 5904 5906 5908 5910 5911 5912 5912 5912 5913 5913 5913 5912 5912 5912 5912 5910 5908 5906 5906 5904 5902
5813 5814 5819 5822 5826 5832 5838 5844 5844 5845 5850 5853 5855 5855 5853 5851 5852 5861 5869 5878 5874 5888 5889 5889 5893 5895 5896 5897 5899 5901 5904 5906 5908 5909 5910 5911 5910 5909 5910 5911 5911 5910 5910 5909 5908 5905 5904 5903 5902
5805 5807 5813 5818 5820 5826 5830 5830 5834 5837 5841 5845 5849 5851 5850 5847 5850 5858 5868 5874 5870 5878 5885 5885 5885 5889 5892 5894 5895 5897 5899 5902 5903 5905 5906 5906 5907 5908 5907 5907 5908 5909 5908 5907 5906 5905 5904 5902 5900
5798 5803 5808 5812 5813 5815 5819 5821 5823 5827 5830 5835 5839 5838 5849 5838 5842 5853 5863 5867 5865 5864 5878 5880 5881 5884 5886 5888 5891 5892 5894 5897 5898 5900 5901 5902 5903 5904 5905 5905 5905 5906 5906 5905 5905 5905 5903 5901 5898
5793 5799 5799 5803 5804 5805 5809 5812 5816 5815 5813 5822 5826 5832 5835 5833 5831 5842 5851 5858 5860 5855 5869 5873 5872 5876 5879 5882 5885 5887 5890 5892 5894 5895 5896 5898 5899 5900 5900 5900 5902 5903 5903 5902 5902 5902 5901 5900 5899
5786 5790 5791 5794 5794 5797 5799 5804 5806 5809 5807 5812 5814 5817 5820 5824 5821 5825 5843 5848 5853 5851 5853 5865 5866 5867 5870 5876 5878 5882 5884 5886 5889 5890 5891 5893 5894 5895 5896 5896 5898 5899 5899 5899 5898 5898 5898 5897 5894
5777 5781 5782 5785 5786 5789 5791 5795 5797 5801 5805 5796 5804 5806 5812 5812 5813 5815 5833 5836 5842 5843 5843 5852 5860 5860 5862 5869 5870 5875 5878 5881 5883 5884 5886 5887 5888 5890 5890 5891 5893 5894 5894 5894 5894 5895 5894 5891 5890
5770 5769 5773 5775 5778 5780 5780 5783 5787 5797 5796 5796 5791 5795 5802 5803 5803 5807 5818 5826 5829 5836 5838 5840 5850 5852 5854 5860 5863 5867 5871 5874 5877 5879 5881 5882 5882 5884 5885 5886 5888 5888 5889 5888 5888 5891 5891 5890 5889
5760 5759 5763 5769 5772 5771 5771 5773 5782 5789 5785 5786 5787 5787 5792 5797 5799 5800 5807 5815 5818 5825 5828 5829 5838 5847 5845 5850 5856 5859 5863 5866 5871 5874 5877 5877 5877 5877 5879 5880 5881 5883 5884 5884 5884 5884 5886 5886 5884
5752 5753 5756 5763 5762 5764 5764 5764 5775 5778 5779 5783 5784 5784 5787 5784 5791 5796 5794 5800 5810 5815 5819 5819 5825 5835 5840 5838 5842 5848 5850 5858 5860 5866 5868 5870 5870 5871 5873 5873 5873 5875 5877 5878 5879 5882 5882 5879 5879
5744 5745 5747 5754 5756 5756 5754 5757 5763 5765 5768 5773 5775 5774 5777 5776 5776 5775 5786 5787 5798 5805 5807 5810 5811 5817 5828 5832 5832 5835 5843 5846 5850 5852 5858 5861 5861 5863 5865 5867 5866 5867 5870 5871 5872 5874 5875 5874 5874
5737 5736 5737 5740 5748 5747 5745 5744 5750 5754 5756 5760 5763 5764 5765 5768 5770 5771 5777 5778 5783 5792 5796 5799 5803 5806 5811 5818 5825 5826 5830 5836 5838 5840 5847 5849 5852 5855 5857 5859 5861 5861 5864 5866 5867 5867 5868 5868 5870
5727 5727 5728 5732 5733 5734 5733 5736 5738 5740 5745 5747 5750 5751 5754 5757 5759 5759 5765 5770 5768 5779 5785 5790 5791 5797 5799 5805 5809 5815 5819 5824 5828 5832 5838 5839 5842 5844 5847 5849 5852 5853 5857 5860 5862 5863 5863 5864 5863
5718 5717 5717 5718 5721 5725 5723 5723 5729 5730 5733 5735 5738 5742 5745 5747 5749 5748 5752 5759 5760 5764 5772 5777 5781 5783 5787 5791 5797 5800 5805 5811 5817 5819 5823 5824 5828 5835 5838 5840 5842 5845 5847 5854 5855 5856 5858 5858 5855
5710 5709 5709 5708 5713 5715 5713 5712 5715 5718 5723 5728 5729 5732 5734 5736 5740 5741 5739 5746 5750 5753 5760 5763 5767 5772 5776 5779 5783 5788 5791 5797 5803 5807 5811 5814 5819 5826 5826 5831 5834 5838 5840 5845 5846 5847 5849 5848 5849
5701 5703 5700 5700 5700 5702 5708 5700 5706 5708 5710 5714 5719 5721 5722 5723 5725 5730 5733 5732 5738 5743 5747 5752 5756 5758 5763 5769 5772 5777 5781 5786 5790 5793 5795 5801 5801 5808 5816 5819 5823 5828 5831 5836 5836 5835 5840 5842 5842
5693 5693 5691 5692 5690 5689 5696 5692 5698 5699 5704 5707 5708 5712 5713 5712 5715 5720 5722 5725 5727 5729 5734 5740 5745 5747 5750 5755 5760 5764 5768 5772 5778 5783 5788 5794 5797 5803 5807 5809 5815 5816 5821 5825 5828 5829 5828 5831 5832
5685 5683 5683 5685 5684 5682 5689 5685 5688 5696 5696 5698 5697 5699 5703 5704 5704 5708 5711 5713 5716 5721 5723 5727 5733 5736 5738 5741 5746 5750 5757 5761 5766 5770 5776 5779 5785 5787 5792 5792 5800 5806 5812 5814 5817 5816 5818 5820 5822
5678 5674 5673 5675 5675 5674 5678 5672 5681 5686 5683 5682 5689 5689 5691 5695 5696 5698 5700 5703 5707 5709 5712 5715 5720 5725 5727 5730 5733 5737 5741 5748 5752 5756 5760 5766 5770 5776 5781 5782 5786 5791 5800 5808 5803 5807 5806 5806 5813
5669 5667 5665 5664 5667 5669 5667 5667 5674 5675 5671 5676 5677 5681 5682 5682 5685 5692 5692 5693 5696 5698 5701 5705 5709 5712 5716 5718 5722 5724 5726 5730 5737 5741 5746 5751 5755 5762 5763 5769 5775 5784 5786 5787 5789 5792 5796 5800 5801
5660 5659 5661 5653 5659 5658 5661 5663 5665 5664 5663 5668 5671 5672 5672 5675 5679 5679 5681 5685 5687 5688 5691 5693 5697 5698 5702 5708 5710 5713 5717 5720 5724 5731 5734 5739 5742 5747 5750 5757 5764 5771 5771 5774 5773 5778 5783 5792 5794
5650 5650 5650 5648 5651 5650 5655 5656 5655 5659 5657 5658 5662 5666 5666 5668 5669 5669 5671 5673 5676 5679 5680 5683 5686 5689 5691 5694 5698 5702 5706 5709 5712 5716 5721 5725 5730 5732 5738 5742 5751 5757 5763 5768 5766 5770 5778 5781 5784
5643 5643 5643 5644 5643 5643 5646 5652 5649 5648 5649 5653 5654 5654 5656 5660 5661 5665 5664 5663 5665 5667 5670 5672 5676 5680 5682 5685 5687 5691 5694 5696 5700 5704 5708 5712 5718 5722 5729 5731 5734 5741 5748 5755 5759 5766 5770 5771 5778
5634 5634 5635 5634 5636 5639 5638 5642 5646 5643 5643 5642 5647 5645 5648 5649 5649 5651 5653 5655 5656 5657 5658 5662 5665 5668 5670 5673 5677 5679 5683 5685 5688 5693 5698 5702 5707 5711 5718 5723 5726 5730 5735 5743 5750 5755 5760 5763 5769